カタログに戻る

METEOR 2-11 DEB

運用中PO
NORAD 40704·DEBRIS·🇷🇺 Russia

打ち上げ Jul 5, 1984 から Plesetsk Cosmodrome

Loading…

次のパス (今後24時間)

TLE

最新Source: Space-Track

元期: Sep 11, 2026, 09:59 UTC

1 40704U 84072F   26254.41627072  .00001014  00000-0  68472-3 0  9990
2 40704  82.5167 295.0313 0030912  80.5079 279.9581 13.99344436579449

AllMySatでMETEOR 2-11 DEBをリアルタイム追跡

Download on the App Store